Terug naar catalogus

STARLINK-37005

ActiefCommunicatieSSO
NORAD 68107·PAYLOAD·🇺🇸 United States

Gelanceerd Mar 8, 2026 vanaf Vandenberg Space Force Base

Loading…

Volgende Passages (komende 24 uur)

TLE

VersSource: CelesTrak SupGP

Epoch: Sep 15, 2026, 04:13 UTC

1 68107C 26044G   26258.17618056  .00042898  00000+0  13320-2 0  2584
2 68107  97.2849 217.1417 0002000  96.0781  58.8478 15.33407394    19

Volg STARLINK-37005 in realtime met AllMySat

Download on the App Store